Precipitable_Water
0.16 0.16 0.15 0.15 0.16 0.18 0.20 0.20 0.21 0.22 0.21 0.21 0.22 0.24 0.23 0.21 0.18 0.17 0.18 0.20 0.20 0.24 0.27 0.25 0.30 0.36 0.37 0.39 0.41 0.43 0.44 0.45 0.47 0.52 0.61 0.64 0.66 0.67 0.67 0.65 0.62 0.52 0.49 0.48 0.48 0.48 0.47 0.48 0.49 0.49 0.49 0.51 0.57 0.61 0.67 0.72 0.73 0.76 0.78 0.81 0.82 0.83 0.87 0.87 0.86 0.86 0.83 0.78 0.77 0.74 0.71 0.70 0.69 0.68
0.16 0.17 0.17 0.16 0.16 0.17 0.19 0.19 0.20 0.21 0.21 0.21 0.22 0.23 0.25 0.25 0.22 0.20 0.17 0.18 0.22 0.24 0.29 0.28 0.24 0.30 0.35 0.38 0.40 0.42 0.43 0.44 0.48 0.50 0.54 0.62 0.65 0.66 0.67 0.66 0.64 0.57 0.51 0.51 0.50 0.50 0.50 0.49 0.49 0.49 0.48 0.46 0.48 0.53 0.57 0.61 0.64 0.68 0.69 0.70 0.75 0.79 0.80 0.81 0.85 0.87 0.87 0.85 0.82 0.78 0.75 0.73 0.70 0.68
0.17 0.16 0.16 0.17 0.18 0.18 0.19 0.21 0.22 0.22 0.21 0.21 0.23 0.25 0.26 0.25 0.23 0.22 0.22 0.19 0.21 0.27 0.27 0.29 0.29 0.26 0.27 0.34 0.38 0.40 0.42 0.45 0.46 0.48 0.50 0.56 0.63 0.66 0.67 0.67 0.65 0.61 0.55 0.53 0.54 0.56 0.57 0.55 0.52 0.51 0.51 0.48 0.46 0.48 0.51 0.53 0.57 0.62 0.65 0.67 0.69 0.74 0.77 0.79 0.80 0.83 0.85 0.85 0.84 0.82 0.79 0.76 0.73 0.71
0.17 0.17 0.18 0.18 0.19 0.20 0.21 0.22 0.23 0.22 0.22 0.22 0.24 0.25 0.24 0.23 0.24 0.24 0.23 0.21 0.20 0.25 0.29 0.30 0.31 0.29 0.27 0.28 0.32 0.37 0.40 0.45 0.47 0.47 0.47 0.50 0.57 0.63 0.66 0.66 0.65 0.63 0.58 0.55 0.58 0.61 0.63 0.61 0.58 0.55 0.54 0.53 0.50 0.48 0.48 0.51 0.53 0.57 0.60 0.63 0.67 0.69 0.71 0.74 0.77 0.79 0.80 0.83 0.86 0.84 0.82 0.79 0.75 0.73
0.19 0.20 0.19 0.19 0.20 0.22 0.23 0.24 0.24 0.24 0.23 0.23 0.24 0.24 0.25 0.23 0.23 0.24 0.24 0.22 0.21 0.23 0.29 0.34 0.34 0.33 0.31 0.29 0.32 0.33 0.37 0.41 0.45 0.47 0.47 0.47 0.50 0.55 0.62 0.65 0.65 0.64 0.63 0.59 0.60 0.63 0.64 0.63 0.62 0.58 0.56 0.56 0.55 0.53 0.51 0.51 0.51 0.54 0.57 0.59 0.62 0.66 0.68 0.70 0.72 0.77 0.79 0.82 0.85 0.85 0.83 0.82 0.80 0.76
0.20 0.20 0.21 0.21 0.23 0.23 0.23 0.26 0.25 0.25 0.25 0.26 0.25 0.25 0.24 0.23 0.22 0.25 0.25 0.24 0.24 0.21 0.26 0.29 0.33 0.32 0.33 0.30 0.33 0.33 0.34 0.36 0.40 0.43 0.45 0.46 0.48 0.49 0.54 0.61 0.64 0.66 0.65 0.62 0.61 0.63 0.64 0.62 0.61 0.59 0.58 0.58 0.58 0.58 0.57 0.55 0.54 0.53 0.53 0.55 0.57 0.62 0.65 0.68 0.70 0.72 0.76 0.79 0.82 0.84 0.84 0.83 0.81 0.80
0.20 0.20 0.21 0.22 0.24 0.24 0.24 0.26 0.26 0.25 0.25 0.26 0.26 0.25 0.26 0.25 0.24 0.25 0.27 0.27 0.25 0.24 0.25 0.30 0.29 0.30 0.31 0.31 0.33 0.34 0.35 0.37 0.39 0.40 0.43 0.46 0.47 0.47 0.51 0.54 0.60 0.64 0.65 0.63 0.61 0.60 0.61 0.61 0.61 0.59 0.56 0.56 0.57 0.58 0.58 0.58 0.58 0.56 0.54 0.53 0.54 0.56 0.61 0.66 0.67 0.70 0.71 0.74 0.78 0.82 0.84 0.85 0.83 0.82
0.20 0.21 0.21 0.22 0.23 0.24 0.24 0.25 0.25 0.25 0.26 0.27 0.27 0.28 0.28 0.28 0.25 0.27 0.28 0.29 0.28 0.28 0.25 0.29 0.29 0.29 0.30 0.30 0.34 0.36 0.37 0.37 0.38 0.39 0.41 0.45 0.47 0.48 0.48 0.50 0.54 0.59 0.63 0.64 0.63 0.60 0.58 0.58 0.59 0.60 0.59 0.56 0.55 0.56 0.57 0.58 0.59 0.59 0.59 0.56 0.53 0.54 0.56 0.60 0.65 0.67 0.69 0.71 0.75 0.78 0.82 0.85 0.85 0.84
0.21 0.21 0.21 0.22 0.23 0.24 0.23 0.25 0.25 0.26 0.26 0.28 0.28 0.28 0.28 0.27 0.28 0.29 0.30 0.32 0.32 0.30 0.28 0.28 0.31 0.31 0.30 0.30 0.33 0.36 0.35 0.36 0.38 0.41 0.40 0.40 0.44 0.47 0.50 0.50 0.49 0.52 0.57 0.61 0.63 0.62 0.61 0.58 0.58 0.58 0.59 0.59 0.58 0.56 0.56 0.56 0.58 0.59 0.60 0.60 0.58 0.56 0.55 0.57 0.60 0.63 0.66 0.68 0.72 0.74 0.78 0.81 0.85 0.85
0.22 0.22 0.22 0.23 0.24 0.24 0.24 0.24 0.25 0.26 0.27 0.28 0.28 0.28 0.29 0.29 0.30 0.30 0.31 0.32 0.32 0.32 0.30 0.29 0.29 0.30 0.30 0.29 0.29 0.35 0.36 0.36 0.35 0.37 0.40 0.41 0.41 0.43 0.45 0.48 0.49 0.49 0.53 0.55 0.59 0.60 0.60 0.61 0.60 0.60 0.60 0.61 0.61 0.59 0.58 0.58 0.58 0.58 0.59 0.60 0.61 0.61 0.59 0.57 0.59 0.60 0.62 0.64 0.67 0.71 0.75 0.77 0.80 0.84
0.21 0.22 0.23 0.23 0.24 0.25 0.25 0.25 0.25 0.26 0.27 0.27 0.27 0.28 0.29 0.30 0.31 0.30 0.30 0.30 0.30 0.29 0.28 0.30 0.31 0.30 0.32 0.33 0.31 0.32 0.36 0.37 0.37 0.36 0.35 0.35 0.39 0.39 0.41 0.43 0.48 0.49 0.47 0.52 0.55 0.57 0.58 0.59 0.59 0.59 0.60 0.60 0.62 0.62 0.61 0.60 0.60 0.60 0.60 0.60 0.60 0.60 0.61 0.60 0.60 0.61 0.61 0.62 0.62 0.65 0.70 0.74 0.77 0.81
0.22 0.23 0.24 0.25 0.25 0.26 0.26 0.26 0.26 0.27 0.26 0.27 0.27 0.28 0.30 0.30 0.30 0.29 0.29 0.28 0.28 0.27 0.27 0.28 0.29 0.30 0.30 0.31 0.34 0.35 0.34 0.32 0.34 0.37 0.36 0.33 0.33 0.35 0.38 0.40 0.42 0.45 0.47 0.46 0.48 0.53 0.56 0.57 0.57 0.57 0.57 0.58 0.59 0.60 0.60 0.59 0.60 0.60 0.61 0.61 0.60 0.60 0.59 0.60 0.60 0.61 0.63 0.62 0.60 0.61 0.63 0.67 0.72 0.76
0.23 0.24 0.25 0.25 0.26 0.26 0.26 0.26 0.27 0.27 0.27 0.27 0.26 0.28 0.29 0.30 0.30 0.28 0.28 0.27 0.26 0.26 0.25 0.26 0.28 0.29 0.28 0.29 0.31 0.31 0.31 0.31 0.30 0.35 0.36 0.34 0.35 0.36 0.35 0.37 0.41 0.44 0.45 0.46 0.47 0.47 0.51 0.52 0.54 0.55 0.55 0.56 0.56 0.58 0.58 0.59 0.59 0.58 0.59 0.60 0.61 0.61 0.61 0.59 0.58 0.59 0.62 0.64 0.63 0.61 0.60 0.61 0.64 0.67
0.24 0.25 0.25 0.25 0.26 0.26 0.25 0.25 0.26 0.26 0.27 0.28 0.27 0.28 0.29 0.28 0.28 0.27 0.27 0.26 0.26 0.25 0.24 0.24 0.25 0.25 0.26 0.27 0.29 0.30 0.31 0.34 0.35 0.34 0.35 0.33 0.34 0.34 0.35 0.36 0.37 0.41 0.43 0.43 0.43 0.45 0.50 0.50 0.51 0.53 0.53 0.55 0.55 0.55 0.56 0.58 0.59 0.58 0.58 0.58 0.58 0.60 0.61 0.62 0.60 0.57 0.58 0.62 0.64 0.65 0.65 0.64 0.63 0.63
0.25 0.25 0.25 0.25 0.26 0.26 0.25 0.25 0.25 0.26 0.26 0.27 0.27 0.27 0.28 0.29 0.28 0.26 0.25 0.25 0.26 0.25 0.24 0.24 0.25 0.24 0.25 0.26 0.27 0.29 0.31 0.33 0.33 0.33 0.34 0.34 0.34 0.33 0.31 0.30 0.35 0.40 0.40 0.40 0.40 0.42 0.47 0.48 0.47 0.49 0.51 0.53 0.54 0.54 0.54 0.56 0.58 0.58 0.59 0.59 0.59 0.59 0.59 0.61 0.62 0.62 0.60 0.60 0.62 0.64 0.64 0.64 0.65 0.65
0.25 0.26 0.25 0.26 0.27 0.26 0.26 0.25 0.25 0.25 0.26 0.26 0.27 0.27 0.27 0.27 0.28 0.28 0.27 0.25 0.25 0.24 0.24 0.24 0.24 0.24 0.24 0.25 0.27 0.28 0.29 0.29 0.31 0.32 0.33 0.33 0.33 0.32 0.32 0.33 0.32 0.37 0.40 0.38 0.38 0.38 0.43 0.45 0.45 0.45 0.48 0.51 0.53 0.54 0.54 0.55 0.56 0.57 0.58 0.58 0.58 0.58 0.60 0.61 0.61 0.61 0.61 0.61 0.62 0.64 0.65 0.65 0.65 0.66
0.25 0.25 0.26 0.26 0.27 0.28 0.27 0.27 0.26 0.26 0.26 0.26 0.26 0.27 0.27 0.27 0.27 0.27 0.27 0.28 0.27 0.27 0.25 0.24 0.23 0.24 0.25 0.24 0.26 0.28 0.29 0.29 0.28 0.30 0.31 0.32 0.32 0.33 0.32 0.33 0.33 0.36 0.40 0.38 0.37 0.36 0.40 0.42 0.42 0.42 0.45 0.48 0.50 0.51 0.53 0.53 0.54 0.55 0.56 0.56 0.57 0.57 0.58 0.60 0.61 0.61 0.61 0.60 0.61 0.61 0.63 0.65 0.65 0.65
0.24 0.25 0.25 0.26 0.26 0.28 0.28 0.28 0.27 0.27 0.27 0.26 0.26 0.26 0.27 0.27 0.27 0.27 0.27 0.27 0.27 0.28 0.27 0.26 0.23 0.25 0.27 0.26 0.27 0.28 0.29 0.27 0.27 0.27 0.28 0.30 0.31 0.31 0.31 0.33 0.33 0.35 0.38 0.35 0.35 0.34 0.37 0.40 0.39 0.39 0.42 0.46 0.46 0.48 0.50 0.51 0.51 0.53 0.54 0.54 0.55 0.56 0.58 0.59 0.59 0.59 0.60 0.60 0.60 0.60 0.60 0.61 0.61 0.61
0.24 0.24 0.25 0.25 0.26 0.27 0.27 0.28 0.28 0.28 0.27 0.27 0.27 0.26 0.26 0.27 0.27 0.28 0.27 0.27 0.27 0.28 0.28 0.28 0.27 0.27 0.27 0.28 0.29 0.30 0.28 0.27 0.28 0.29 0.29 0.30 0.31 0.32 0.33 0.33 0.33 0.33 0.35 0.35 0.34 0.29 0.33 0.38 0.36 0.37 0.40 0.42 0.43 0.45 0.46 0.48 0.49 0.50 0.51 0.52 0.52 0.54 0.57 0.58 0.58 0.59 0.59 0.59 0.59 0.59 0.59 0.59 0.59 0.59
0.23 0.23 0.24 0.25 0.25 0.26 0.27 0.28 0.29 0.29 0.29 0.28 0.27 0.27 0.27 0.27 0.28 0.28 0.29 0.29 0.29 0.29 0.29 0.29 0.28 0.28 0.29 0.29 0.29 0.30 0.29 0.29 0.29 0.29 0.29 0.30 0.29 0.29 0.28 0.27 0.29 0.29 0.33 0.34 0.31 0.29 0.30 0.34 0.33 0.34 0.38 0.40 0.39 0.42 0.43 0.44 0.46 0.47 0.48 0.49 0.50 0.51 0.54 0.55 0.56 0.57 0.57 0.57 0.57 0.57 0.57 0.57 0.57 0.57
0.23 0.24 0.24 0.24 0.25 0.26 0.26 0.27 0.28 0.29 0.29 0.28 0.27 0.26 0.26 0.27 0.27 0.28 0.30 0.30 0.30 0.30 0.30 0.30 0.30 0.30 0.29 0.29 0.28 0.29 0.29 0.29 0.30 0.29 0.27 0.26 0.26 0.25 0.24 0.25 0.26 0.26 0.29 0.31 0.31 0.29 0.27 0.30 0.31 0.32 0.34 0.36 0.36 0.38 0.40 0.42 0.43 0.44 0.45 0.46 0.47 0.49 0.50 0.52 0.53 0.54 0.55 0.55 0.56 0.56 0.56 0.56 0.55 0.55
0.23 0.24 0.24 0.24 0.25 0.25 0.25 0.26 0.26 0.27 0.28 0.27 0.27 0.26 0.26 0.25 0.26 0.27 0.29 0.30 0.30 0.31 0.31 0.30 0.30 0.30 0.30 0.30 0.29 0.28 0.30 0.29 0.29 0.28 0.25 0.25 0.26 0.24 0.23 0.22 0.24 0.25 0.27 0.28 0.30 0.27 0.27 0.29 0.30 0.29 0.31 0.33 0.34 0.35 0.37 0.38 0.40 0.42 0.42 0.43 0.43 0.45 0.47 0.49 0.50 0.51 0.52 0.53 0.54 0.54 0.55 0.55 0.55 0.54
0.23 0.23 0.23 0.23 0.24 0.24 0.23 0.23 0.23 0.24 0.25 0.25 0.26 0.26 0.25 0.25 0.25 0.26 0.28 0.28 0.28 0.29 0.29 0.30 0.30 0.30 0.31 0.30 0.29 0.29 0.29 0.30 0.29 0.28 0.28 0.29 0.26 0.24 0.23 0.23 0.23 0.22 0.23 0.27 0.30 0.26 0.26 0.27 0.28 0.28 0.27 0.27 0.31 0.33 0.34 0.35 0.36 0.38 0.39 0.40 0.41 0.42 0.43 0.44 0.47 0.48 0.49 0.50 0.51 0.51 0.52 0.52 0.52 0.52
0.24 0.24 0.24 0.24 0.24 0.24 0.25 0.25 0.25 0.24 0.24 0.24 0.24 0.24 0.24 0.23 0.23 0.27 0.28 0.28 0.29 0.29 0.29 0.29 0.29 0.30 0.31 0.30 0.29 0.30 0.30 0.30 0.29 0.28 0.29 0.29 0.28 0.26 0.24 0.24 0.22 0.20 0.21 0.25 0.29 0.25 0.26 0.27 0.26 0.28 0.27 0.24 0.24 0.28 0.31 0.32 0.34 0.35 0.36 0.37 0.38 0.40 0.42 0.42 0.43 0.45 0.46 0.47 0.48 0.49 0.49 0.50 0.50 0.49
0.24 0.24 0.25 0.26 0.27 0.27 0.27 0.27 0.27 0.27 0.26 0.26 0.25 0.25 0.24 0.24 0.25 0.26 0.26 0.27 0.28 0.28 0.28 0.28 0.29 0.29 0.30 0.30 0.30 0.30 0.30 0.30 0.30 0.29 0.29 0.30 0.30 0.28 0.26 0.24 0.22 0.21 0.23 0.24 0.27 0.25 0.23 0.24 0.24 0.26 0.25 0.25 0.24 0.23 0.26 0.29 0.31 0.32 0.33 0.34 0.35 0.37 0.39 0.40 0.41 0.42 0.43 0.44 0.45 0.46 0.47 0.47 0.47 0.46
0.25 0.25 0.25 0.26 0.27 0.27 0.27 0.27 0.27 0.27 0.27 0.27 0.27 0.27 0.27 0.27 0.26 0.26 0.26 0.26 0.26 0.26 0.27 0.27 0.27 0.28 0.28 0.28 0.29 0.30 0.30 0.30 0.30 0.30 0.29 0.29 0.30 0.30 0.29 0.26 0.23 0.22 0.22 0.25 0.26 0.25 0.23 0.22 0.23 0.23 0.23 0.22 0.22 0.22 0.21 0.23 0.25 0.27 0.29 0.31 0.32 0.34 0.36 0.37 0.38 0.39 0.40 0.41 0.42 0.43 0.43 0.43 0.45 0.45
0.25 0.26 0.26 0.26 0.26 0.26 0.27 0.27 0.27 0.26 0.27 0.27 0.27 0.27 0.26 0.27 0.27 0.28 0.27 0.26 0.26 0.25 0.25 0.25 0.25 0.26 0.26 0.26 0.27 0.28 0.28 0.30 0.30 0.30 0.30 0.29 0.30 0.31 0.31 0.30 0.29 0.27 0.27 0.27 0.27 0.26 0.25 0.23 0.24 0.22 0.21 0.21 0.19 0.19 0.19 0.19 0.20 0.23 0.24 0.25 0.27 0.29 0.31 0.32 0.34 0.35 0.37 0.38 0.39 0.41 0.42 0.43 0.43 0.43
0.25 0.25 0.25 0.25 0.25 0.25 0.25 0.25 0.25 0.25 0.25 0.25 0.25 0.25 0.26 0.26 0.27 0.27 0.27 0.27 0.26 0.26 0.25 0.24 0.23 0.23 0.25 0.25 0.25 0.26 0.28 0.28 0.30 0.31 0.30 0.29 0.31 0.32 0.32 0.31 0.30 0.30 0.29 0.28 0.28 0.27 0.26 0.24 0.23 0.23 0.22 0.20 0.18 0.16 0.16 0.19 0.19 0.19 0.20 0.22 0.23 0.25 0.26 0.27 0.29 0.31 0.33 0.34 0.35 0.36 0.37 0.38 0.40 0.41
0.26 0.26 0.26 0.26 0.26 0.26 0.25 0.25 0.24 0.25 0.25 0.25 0.26 0.26 0.26 0.26 0.27 0.26 0.25 0.25 0.26 0.25 0.25 0.24 0.24 0.24 0.25 0.25 0.26 0.27 0.28 0.29 0.30 0.30 0.29 0.30 0.31 0.32 0.32 0.31 0.31 0.30 0.30 0.29 0.29 0.29 0.27 0.25 0.24 0.24 0.23 0.22 0.20 0.19 0.19 0.18 0.18 0.18 0.19 0.19 0.19 0.21 0.23 0.24 0.25 0.27 0.28 0.29 0.31 0.32 0.33 0.34 0.35 0.37
0.27 0.26 0.25 0.25 0.25 0.25 0.25 0.25 0.25 0.24 0.24 0.24 0.24 0.24 0.25 0.26 0.26 0.26 0.26 0.25 0.24 0.24 0.25 0.25 0.25 0.25 0.26 0.27 0.28 0.29 0.29 0.28 0.27 0.27 0.26 0.26 0.27 0.29 0.29 0.28 0.29 0.29 0.30 0.30 0.30 0.30 0.29 0.28 0.27 0.26 0.24 0.24 0.23 0.21 0.21 0.19 0.18 0.19 0.20 0.19 0.19 0.20 0.21 0.22 0.23 0.24 0.25 0.26 0.27 0.29 0.30 0.32 0.32 0.33
0.25 0.25 0.25 0.25 0.26 0.26 0.25 0.24 0.24 0.24 0.23 0.23 0.24 0.26 0.25 0.26 0.26 0.26 0.26 0.26 0.25 0.25 0.25 0.26 0.27 0.27 0.28 0.29 0.29 0.27 0.27 0.26 0.27 0.27 0.25 0.24 0.25 0.26 0.26 0.25 0.25 0.25 0.27 0.28 0.29 0.29 0.29 0.28 0.27 0.27 0.24 0.24 0.24 0.23 0.22 0.22 0.20 0.19 0.20 0.20 0.20 0.18 0.19 0.20 0.21 0.22 0.23 0.24 0.25 0.26 0.27 0.28 0.29 0.30
0.25 0.25 0.26 0.26 0.26 0.25 0.24 0.23 0.23 0.23 0.22 0.22 0.24 0.26 0.26 0.25 0.26 0.26 0.27 0.27 0.27 0.26 0.26 0.26 0.27 0.28 0.28 0.27 0.27 0.27 0.26 0.26 0.26 0.26 0.26 0.25 0.24 0.25 0.25 0.23 0.22 0.23 0.24 0.25 0.26 0.27 0.27 0.27 0.26 0.26 0.25 0.24 0.22 0.22 0.23 0.22 0.20 0.20 0.20 0.20 0.20 0.21 0.20 0.19 0.20 0.20 0.21 0.21 0.21 0.22 0.23 0.25 0.25 0.27
0.25 0.25 0.25 0.24 0.23 0.22 0.21 0.21 0.21 0.21 0.22 0.21 0.23 0.24 0.26 0.25 0.26 0.26 0.26 0.25 0.25 0.26 0.27 0.26 0.26 0.26 0.27 0.27 0.27 0.26 0.25 0.26 0.26 0.27 0.26 0.26 0.25 0.25 0.24 0.22 0.21 0.21 0.21 0.22 0.23 0.24 0.25 0.25 0.25 0.25 0.24 0.24 0.23 0.22 0.21 0.19 0.19 0.20 0.19 0.19 0.20 0.20 0.20 0.20 0.20 0.20 0.20 0.20 0.19 0.20 0.20 0.21 0.22 0.23
0.23 0.23 0.23 0.22 0.21 0.21 0.20 0.19 0.19 0.20 0.21 0.21 0.21 0.22 0.23 0.25 0.25 0.26 0.26 0.26 0.26 0.27 0.26 0.27 0.26 0.26 0.26 0.26 0.26 0.26 0.25 0.25 0.25 0.26 0.26 0.25 0.25 0.24 0.23 0.22 0.22 0.22 0.22 0.21 0.21 0.22 0.22 0.23 0.23 0.23 0.23 0.23 0.23 0.23 0.22 0.20 0.19 0.19 0.19 0.19 0.18 0.18 0.19 0.19 0.20 0.20 0.20 0.19 0.19 0.18 0.18 0.19 0.20 0.20
0.22 0.21 0.21 0.21 0.21 0.20 0.20 0.19 0.20 0.20 0.20 0.21 0.21 0.22 0.22 0.24 0.25 0.25 0.26 0.26 0.27 0.26 0.26 0.26 0.26 0.26 0.26 0.25 0.25 0.25 0.25 0.24 0.24 0.24 0.25 0.24 0.24 0.23 0.22 0.22 0.22 0.22 0.22 0.22 0.22 0.22 0.22 0.22 0.22 0.21 0.21 0.21 0.20 0.21 0.22 0.21 0.20 0.19 0.19 0.18 0.18 0.18 0.18 0.18 0.18 0.18 0.18 0.18 0.18 0.17 0.16 0.17 0.17 0.19
0.21 0.21 0.21 0.20 0.20 0.21 0.20 0.20 0.20 0.20 0.20 0.21 0.21 0.21 0.22 0.22 0.24 0.24 0.24 0.26 0.26 0.26 0.25 0.26 0.26 0.26 0.25 0.25 0.25 0.25 0.25 0.24 0.23 0.23 0.23 0.23 0.23 0.23 0.23 0.22 0.22 0.22 0.22 0.22 0.22 0.22 0.22 0.22 0.21 0.20 0.18 0.18 0.17 0.16 0.17 0.21 0.21 0.20 0.18 0.17 0.18 0.18 0.18 0.18 0.18 0.18 0.18 0.17 0.17 0.17 0.16 0.16 0.16 0.17
0.21 0.21 0.21 0.20 0.20 0.21 0.20 0.20 0.20 0.21 0.21 0.21 0.21 0.21 0.22 0.22 0.23 0.24 0.25 0.26 0.26 0.26 0.25 0.26 0.25 0.25 0.25 0.24 0.24 0.24 0.23 0.23 0.22 0.22 0.22 0.23 0.22 0.22 0.21 0.21 0.21 0.21 0.21 0.22 0.22 0.22 0.22 0.21 0.21 0.20 0.18 0.17 0.16 0.15 0.16 0.19 0.21 0.22 0.20 0.19 0.18 0.19 0.19 0.18 0.18 0.17 0.17 0.17 0.17 0.17 0.16 0.16 0.16 0.17
0.21 0.21 0.21 0.21 0.20 0.20 0.20 0.21 0.21 0.21 0.21 0.21 0.21 0.22 0.22 0.22 0.23 0.24 0.25 0.24 0.24 0.24 0.25 0.25 0.25 0.25 0.24 0.24 0.23 0.23 0.23 0.24 0.23 0.23 0.23 0.23 0.22 0.22 0.21 0.21 0.21 0.21 0.21 0.21 0.21 0.21 0.21 0.21 0.20 0.20 0.19 0.17 0.16 0.16 0.16 0.18 0.19 0.20 0.23 0.22 0.20 0.19 0.20 0.18 0.17 0.17 0.17 0.18 0.17 0.17 0.17 0.16 0.16 0.17
0.20 0.20 0.20 0.20 0.20 0.20 0.20 0.20 0.20 0.20 0.21 0.21 0.21 0.22 0.22 0.22 0.22 0.23 0.23 0.23 0.24 0.24 0.24 0.24 0.24 0.24 0.24 0.24 0.24 0.23 0.23 0.22 0.22 0.22 0.22 0.22 0.22 0.21 0.21 0.21 0.21 0.21 0.21 0.20 0.21 0.21 0.21 0.21 0.20 0.20 0.20 0.19 0.18 0.18 0.19 0.19 0.19 0.20 0.22 0.23 0.22 0.20 0.20 0.19 0.18 0.18 0.18 0.17 0.17 0.18 0.18 0.18 0.18 0.17
0.20 0.20 0.20 0.20 0.20 0.20 0.20 0.20 0.19 0.20 0.20 0.20 0.20 0.21 0.21 0.21 0.21 0.22 0.22 0.22 0.23 0.23 0.23 0.23 0.23 0.23 0.23 0.23 0.23 0.23 0.22 0.22 0.22 0.22 0.22 0.22 0.22 0.22 0.21 0.21 0.21 0.20 0.20 0.20 0.19 0.20 0.20 0.20 0.21 0.21 0.21 0.21 0.21 0.21 0.21 0.20 0.20 0.20 0.20 0.22 0.22 0.21 0.20 0.20 0.19 0.18 0.17 0.18 0.17 0.16 0.16 0.16 0.15 0.15
0.19 0.19 0.20 0.20 0.20 0.20 0.20 0.20 0.20 0.20 0.19 0.19 0.19 0.20 0.20 0.20 0.20 0.20 0.20 0.21 0.21 0.21 0.22 0.22 0.22 0.22 0.22 0.22 0.22 0.22 0.21 0.21 0.21 0.21 0.21 0.21 0.21 0.21 0.20 0.20 0.20 0.20 0.19 0.19 0.19 0.19 0.20 0.21 0.22 0.22 0.22 0.21 0.21 0.21 0.20 0.18 0.17 0.18 0.19 0.20 0.21 0.21 0.21 0.20 0.19 0.18 0.17 0.17 0.17 0.16 0.15 0.15 0.15 0.15
0.19 0.19 0.19 0.20 0.20 0.20 0.20 0.20 0.20 0.19 0.19 0.19 0.19 0.19 0.19 0.19 0.19 0.19 0.19 0.19 0.20 0.20 0.20 0.20 0.21 0.21 0.21 0.21 0.21 0.21 0.21 0.20 0.20 0.20 0.20 0.20 0.20 0.20 0.20 0.20 0.19 0.20 0.19 0.19 0.19 0.20 0.20 0.21 0.21 0.21 0.21 0.20 0.20 0.18 0.17 0.17 0.17 0.18 0.18 0.18 0.19 0.20 0.20 0.20 0.19 0.18 0.18 0.17 0.16 0.15 0.14 0.14 0.14 0.14
0.19 0.19 0.19 0.19 0.19 0.19 0.19 0.19 0.19 0.19 0.19 0.19 0.19 0.19 0.18 0.19 0.19 0.18 0.18 0.18 0.18 0.19 0.19 0.19 0.20 0.20 0.20 0.20 0.20 0.20 0.20 0.19 0.19 0.19 0.19 0.19 0.19 0.19 0.19 0.19 0.19 0.19 0.19 0.19 0.19 0.20 0.20 0.20 0.20 0.20 0.20 0.19 0.19 0.18 0.17 0.17 0.17 0.17 0.17 0.17 0.17 0.17 0.18 0.19 0.19 0.18 0.17 0.17 0.16 0.15 0.15 0.14 0.13 0.12
0.19 0.18 0.18 0.19 0.19 0.19 0.19 0.19 0.19 0.19 0.19 0.19 0.19 0.18 0.18 0.18 0.18 0.18 0.18 0.18 0.17 0.17 0.17 0.17 0.18 0.18 0.18 0.19 0.19 0.19 0.19 0.19 0.19 0.18 0.18 0.18 0.18 0.18 0.18 0.18 0.18 0.18 0.18 0.18 0.18 0.18 0.19 0.19 0.19 0.19 0.18 0.18 0.18 0.17 0.16 0.17 0.16 0.16 0.16 0.16 0.16 0.16 0.16 0.17 0.17 0.18 0.18 0.17 0.16 0.16 0.15 0.15 0.15 0.14
0.18 0.18 0.18 0.17 0.17 0.18 0.18 0.18 0.18 0.18 0.18 0.18 0.18 0.18 0.18 0.17 0.17 0.17 0.16 0.16 0.16 0.16 0.16 0.16 0.15 0.16 0.16 0.17 0.17 0.17 0.18 0.18 0.18 0.18 0.18 0.17 0.17 0.17 0.17 0.17 0.17 0.17 0.17 0.17 0.17 0.16 0.17 0.17 0.17 0.17 0.16 0.16 0.16 0.16 0.16 0.16 0.15 0.15 0.15 0.15 0.15 0.15 0.15 0.15 0.14 0.14 0.14 0.15 0.16 0.16 0.16 0.15 0.15 0.15
Wind_Speed
53 54 56 56 56 57 58 58 59 60 61 62 63 63 63 64 64 65 65 66 68 70 71 71 72 73 72 70 70 70 70 71 72 72 72 71 70 70 70 69 68 68 66 65 65 64 63 62 62 61 60 60 59 59 58 57 56 56 55 53 52 52 51 50 50 50 50 50 50 50 50 50 50 50
48 49 50 52 53 54 55 56 56 57 58 59 60 61 62 62 62 62 63 65 66 67 69 70 71 72 72 71 70 70 70 71 71 71 72 72 71 70 71 70 69 69 67 66 65 64 64 64 63 62 62 61 60 60 60 59 59 58 57 56 55 54 53 51 51 51 51 51 50 51 51 51 51 51
44 45 47 47 49 50 51 52 52 54 55 56 56 58 59 60 61 61 61 63 65 65 66 67 69 71 72 71 70 69 69 69 69 70 71 72 72 71 70 71 71 70 69 67 66 65 64 64 64 64 63 62 61 61 60 60 60 60 59 58 57 56 55 54 53 53 52 52 52 51 51 51 51 51
39 41 43 44 44 45 46 47 48 50 51 53 53 54 56 57 58 59 59 60 63 65 64 64 66 68 70 71 71 70 68 67 67 68 69 71 71 71 70 70 71 71 69 68 67 66 65 65 64 64 63 63 62 62 61 61 61 61 61 60 59 58 57 56 55 54 53 53 53 53 52 51 51 51
34 36 38 39 40 41 42 44 45 46 47 49 50 51 53 55 56 57 57 58 60 63 63 62 62 64 66 69 70 70 69 68 67 67 68 69 70 71 70 69 70 71 71 69 67 66 65 65 64 64 64 63 63 62 62 61 61 61 61 61 60 60 59 58 57 56 55 54 54 54 54 53 52 52
30 31 32 34 35 36 38 40 41 42 43 45 46 48 50 52 53 54 54 55 56 59 61 61 61 62 64 66 68 69 70 69 68 67 67 67 69 70 71 70 69 70 70 70 69 67 66 65 65 64 64 63 63 62 62 62 62 61 61 61 61 61 61 60 59 58 57 56 55 55 55 55 54 53
28 28 29 30 32 33 33 35 37 39 40 42 43 45 46 48 50 51 52 52 52 54 56 58 59 61 62 64 65 67 68 68 68 68 67 66 67 68 70 70 70 69 69 70 70 68 66 65 65 64 64 64 63 63 62 62 62 62 62 62 62 62 61 61 60 60 59 58 56 56 56 56 56 55
25 26 27 28 29 31 31 31 33 35 37 38 40 41 42 45 47 48 48 49 49 50 51 53 55 58 60 61 62 64 66 66 66 67 67 66 66 66 68 69 69 69 69 70 71 69 67 66 65 65 64 64 63 63 63 63 63 62 62 62 62 62 62 62 61 61 60 59 58 58 57 57 57 57
24 24 25 26 27 29 29 29 30 32 33 34 35 37 38 41 43 43 44 44 45 47 48 49 50 53 55 57 59 61 63 64 64 64 65 66 66 65 65 66 67 67 68 69 70 70 69 67 66 66 65 64 63 63 63 63 63 63 62 62 62 62 62 62 62 62 61 60 60 59 59 58 58 58
22 22 23 24 26 27 27 27 28 29 30 30 32 33 35 37 39 40 40 40 41 42 44 44 45 47 50 52 56 58 60 61 63 62 62 64 65 65 64 64 65 66 67 67 68 69 69 68 67 66 66 65 64 64 64 63 63 63 63 63 62 62 62 62 62 62 62 62 61 60 60 60 59 59
20 21 21 22 23 24 25 26 26 27 28 28 29 30 32 34 36 37 37 38 38 39 41 41 42 43 44 45 50 54 57 58 59 60 60 61 63 64 64 63 62 63 65 66 66 67 67 67 67 67 66 66 65 64 64 64 64 64 64 64 64 63 63 63 63 63 63 63 62 62 61 61 61 60
18 18 19 20 21 22 23 24 25 25 26 27 28 28 30 32 34 35 36 36 37 38 39 39 40 41 41 40 42 47 52 54 56 57 58 60 61 61 62 63 61 60 61 63 64 64 65 65 66 67 67 66 65 65 64 64 64 64 64 65 65 65 64 64 63 63 63 63 63 63 63 62 62 62
16 16 17 18 20 21 22 23 24 24 25 26 27 27 28 30 32 33 34 34 35 37 38 38 39 40 40 39 39 42 46 51 53 54 54 56 58 59 60 61 61 60 59 59 60 61 62 63 63 65 66 66 66 65 65 64 64 65 65 65 65 66 66 65 64 64 64 64 64 64 64 63 63 63
13 15 16 17 18 19 21 22 23 24 25 26 27 27 27 29 30 31 32 33 34 35 36 38 39 40 41 40 40 40 42 45 48 50 51 52 54 56 57 58 59 60 59 58 58 59 59 60 61 62 63 65 65 65 65 64 64 64 64 64 64 65 66 66 66 65 64 64 64 64 64 64 64 63
10 12 15 16 17 18 19 21 22 23 24 25 26 27 28 29 30 31 32 33 34 34 35 36 38 40 40 41 41 41 41 42 44 47 49 49 50 52 54 55 57 59 60 59 58 58 58 58 58 58 59 61 62 63 63 63 63 62 62 62 62 63 64 65 65 65 65 65 64 64 64 64 64 64
7 8 10 13 14 15 17 19 20 21 23 24 25 27 28 29 30 32 32 33 34 34 35 36 37 39 40 41 41 42 42 42 43 45 46 48 48 49 51 52 53 56 57 57 56 56 57 57 56 56 56 57 58 59 60 60 61 61 60 60 60 60 62 63 63 63 64 64 64 65 65 64 64 64
8 6 7 9 11 13 14 16 18 19 21 22 24 25 27 28 29 31 33 34 34 35 35 36 37 38 40 41 42 42 43 43 43 44 45 47 48 48 49 50 51 53 55 55 53 53 54 55 55 55 55 55 55 56 57 58 58 59 59 59 58 58 59 61 62 62 62 62 63 64 65 65 65 64
8 7 6 7 9 10 12 13 15 17 18 20 22 24 25 26 27 29 31 32 34 35 35 36 36 37 39 40 41 42 42 43 44 44 45 46 47 48 47 48 49 50 53 54 53 52 52 54 54 54 54 54 54 54 55 56 56 57 57 57 57 56 57 58 60 61 62 62 62 62 63 64 65 65
9 9 8 8 8 9 10 12 13 14 16 17 19 21 23 24 25 27 28 29 31 33 34 35 35 36 37 39 40 41 41 43 44 44 44 46 47 47 47 47 48 49 51 52 52 51 52 53 53 53 52 52 53 53 53 54 54 55 55 56 56 56 55 56 57 59 60 61 61 61 61 62 63 64
9 9 9 9 10 10 10 11 12 13 14 15 16 18 20 21 23 24 26 27 28 30 31 32 33 34 36 37 39 40 40 41 43 44 44 45 46 47 48 48 49 49 50 52 52 51 51 52 52 52 52 52 51 52 53 53 54 53 54 55 56 56 56 55 56 56 57 58 59 60 61 61 61 62
8 9 9 9 10 10 11 11 12 13 13 14 15 16 17 19 20 21 23 24 26 28 29 30 31 33 34 35 36 38 39 40 42 43 44 45 46 47 47 48 49 50 51 51 52 51 51 52 52 52 52 52 51 51 52 53 54 54 54 54 55 56 57 57 56 56 57 57 58 58 59 60 59 59
7 8 9 10 10 11 11 12 13 13 14 14 15 16 17 18 19 20 20 21 23 25 27 28 29 30 32 33 34 35 37 38 40 42 44 45 45 46 46 46 47 48 50 51 51 51 51 52 52 53 53 52 53 53 52 53 54 55 55 55 55 56 57 58 57 57 57 58 58 58 58 59 59 59
8 9 10 11 11 12 12 13 14 15 15 15 15 16 17 18 19 19 20 21 21 23 24 25 27 28 29 30 31 32 34 36 37 39 41 43 44 45 45 45 45 46 48 50 51 51 51 51 52 53 53 53 54 55 54 54 54 55 55 56 56 56 57 58 58 58 58 58 58 59 59 59 59 59
9 9 10 11 12 13 14 15 16 17 18 18 18 18 18 19 19 19 20 21 22 22 23 24 24 26 27 28 29 30 31 33 34 36 38 39 41 43 43 44 45 45 46 48 50 51 50 51 51 52 53 53 53 55 56 56 56 56 56 56 56 57 58 59 59 60 60 60 59 59 59 60 60 60
8 9 9 10 11 12 14 15 16 17 19 20 20 21 21 21 21 21 20 21 22 22 23 23 23 24 25 26 27 28 30 31 32 33 34 36 38 39 40 41 42 43 43 45 47 49 49 50 50 51 52 52 52 53 55 56 57 57 58 58 58 58 58 59 59 60 61 62 62 62 62 61 61 61
8 8 9 10 11 12 13 14 16 17 18 20 21 22 23 24 24 23 23 22 22 23 23 23 23 23 24 24 25 26 27 29 30 31 32 33 34 36 37 37 38 39 40 41 44 46 46 47 48 49 50 50 51 51 52 54 56 57 58 59 59 59 60 60 60 60 61 62 63 64 64 64 64 64
7 8 9 9 10 11 13 14 15 17 18 20 21 23 25 26 27 26 25 24 24 24 23 23 23 23 23 23 23 24 24 26 27 28 29 31 32 33 34 34 34 35 36 38 40 43 43 44 46 47 47 48 49 50 50 51 53 54 56 58 58 59 60 60 61 61 62 62 62 63 63 64 64 65
7 8 9 9 10 11 12 13 15 16 18 20 21 23 24 26 28 28 27 26 26 25 25 24 23 23 23 23 22 22 22 23 25 26 27 28 30 31 31 32 32 32 34 35 37 39 40 41 43 44 45 46 46 47 48 49 50 51 53 54 56 57 59 59 60 61 62 62 63 63 63 63 63 64
7 8 9 10 10 11 12 13 13 14 16 17 19 21 22 23 25 27 28 28 27 26 26 25 24 24 24 23 22 22 21 22 23 23 24 26 27 28 28 29 30 30 31 33 34 36 38 39 40 41 43 43 44 45 46 47 48 49 50 51 53 55 56 57 58 59 60 61 62 63 63 64 64 64
8 8 9 10 10 10 10 10 10 11 12 13 15 16 18 20 21 24 26 28 28 27 26 26 25 24 24 23 23 22 22 21 21 22 23 24 25 25 26 27 28 28 29 30 31 33 35 36 37 38 40 41 42 43 44 45 46 47 49 50 51 52 53 55 56 57 58 59 60 61 62 63 64 64
7 7 8 8 8 7 7 7 7 8 9 9 9 9 12 16 17 19 22 24 26 27 26 26 25 24 24 24 23 23 22 22 22 22 22 23 23 23 24 24 25 26 27 28 28 30 31 33 34 35 36 37 38 39 41 42 43 45 47 49 49 50 51 52 54 56 57 57 58 59 61 62 63 64
7 7 7 7 6 5 5 5 6 7 8 6 4 3 6 11 14 16 18 21 23 24 25 25 24 24 24 24 24 23 23 22 22 22 23 23 23 23 23 23 23 23 24 25 26 27 28 29 31 32 33 34 35 36 37 39 40 41 43 45 47 48 48 50 51 53 55 56 56 58 59 60 61 62
7 6 6 6 6 5 5 5 6 7 8 6 4 2 4 7 10 13 15 17 19 21 22 23 23 24 24 24 24 24 23 23 23 23 23 23 23 23 23 23 23 23 23 24 25 26 26 27 28 30 31 31 32 34 35 36 37 38 39 41 43 44 45 47 48 49 51 53 54 56 57 59 60 61
6 6 5 6 6 6 5 6 6 6 7 8 8 7 6 6 7 10 12 14 16 18 19 20 20 21 22 23 23 24 23 23 23 23 23 23 23 23 23 23 23 23 24 25 25 26 27 28 28 29 30 31 32 33 34 34 35 36 37 38 40 41 43 44 45 46 47 49 51 52 54 56 57 59
7 7 6 6 6 6 6 6 6 6 7 8 8 8 8 8 8 9 10 11 13 14 15 16 17 18 19 20 21 22 23 22 22 23 23 23 23 24 23 23 24 24 24 25 26 26 27 27 28 29 30 30 32 33 34 35 35 35 36 37 38 39 41 42 43 44 45 47 48 49 50 52 54 56
8 8 7 7 7 7 7 7 7 7 8 8 9 10 10 11 11 11 11 11 11 11 12 12 13 14 16 17 18 19 20 21 22 22 22 22 23 23 23 23 24 24 24 24 25 26 26 27 28 29 29 30 32 33 34 35 37 37 37 38 39 40 41 41 42 44 45 46 47 48 48 49 50 52
8 8 7 7 7 7 7 8 8 8 9 9 10 10 10 11 11 11 11 11 11 11 10 11 11 12 12 13 14 15 16 17 18 19 19 20 20 20 21 21 21 22 22 22 23 23 25 25 26 27 28 29 31 32 32 33 36 38 39 39 40 41 42 42 43 44 45 46 46 47 48 48 49 50
8 8 7 7 7 7 8 8 9 9 10 10 10 10 10 10 10 10 9 10 10 10 9 10 10 10 10 11 12 13 14 14 15 16 16 17 17 18 18 18 19 19 20 20 21 21 22 23 24 25 26 27 28 29 29 30 32 34 36 37 38 39 40 41 42 43 44 45 46 47 48 49 49 49
7 7 6 6 6 6 7 8 9 9 9 10 10 10 10 9 9 9 9 8 8 8 8 8 8 8 9 10 10 11 12 12 13 13 14 14 15 16 16 17 18 18 19 20 20 21 22 24 25 25 26 27 27 28 28 29 30 31 33 34 35 36 36 38 39 41 42 43 45 46 47 48 49 50
7 6 5 5 5 5 5 6 7 7 8 8 8 8 8 8 8 8 8 7 7 7 7 7 7 7 7 8 9 9 10 11 11 12 13 13 14 15 15 16 17 18 19 20 21 22 23 24 25 26 27 27 28 28 29 30 30 31 32 33 35 35 36 36 37 38 39 40 41 42 43 45 46 47
6 5 5 4 4 4 4 4 5 5 5 6 6 6 5 5 5 5 5 5 5 5 5 5 5 6 6 7 7 8 9 9 10 11 12 13 14 14 15 16 17 18 19 20 21 22 23 24 25 25 26 27 28 28 29 30 30 31 32 33 34 36 36 37 38 38 39 39 39 40 40 41 41 42
5 4 4 3 3 2 2 2 2 3 3 3 3 3 3 3 3 3 3 3 3 4 4 4 4 5 6 6 7 8 9 9 10 11 12 13 14 15 16 17 17 18 19 20 21 22 23 23 24 24 25 26 27 28 29 30 30 31 32 32 34 35 37 38 38 39 40 40 40 40 40 39 40 41
5 4 3 2 1 1 1 1 1 1 1 1 1 1 1 1 1 1 1 2 2 3 3 4 5 5 6 7 8 9 9 10 11 12 13 14 14 15 16 16 17 18 19 19 20 20 21 22 23 24 25 26 27 28 29 30 30 31 32 33 34 35 36 37 38 39 40 40 41 41 41 40 40 40
5 4 3 1 0 0 0 0 0 0 0 0 0 1 1 0 0 0 1 1 2 3 3 4 4 5 6 6 7 8 9 9 10 11 11 12 13 13 14 15 15 16 17 17 18 18 19 20 21 22 23 24 26 27 28 29 30 31 32 33 34 35 35 36 37 38 39 40 41 42 42 43 43 42
4 3 2 1 1 1 1 1 1 1 1 0 0 0 0 0 0 0 1 1 2 2 3 3 4 4 5 6 6 7 7 8 9 9 10 11 11 12 13 14 14 15 15 16 17 18 18 19 20 22 23 24 25 27 28 29 30 31 32 32 33 34 35 36 36 37 38 39 40 41 42 43 44 45
Wind_Direction
249 249 248 248 248 248 246 245 244 243 242 242 241 240 240 240 239 238 238 237 237 236 236 235 235 234 234 234 234 233 233 232 232 232 232 231 232 231 231 231 231 231 231 231 231 231 232 232 232 232 232 232 232 231 231 232 232 233 233 234 234 233 233 233 234 234 233 233 234 234 234 234 234 234
247 247 247 246 246 245 245 245 244 242 241 241 240 239 239 239 238 238 238 237 237 236 236 235 235 234 233 233 233 233 233 232 232 232 231 231 231 231 231 231 231 231 231 231 231 232 232 232 232 232 233 233 233 233 232 232 233 233 234 234 235 234 234 234 234 234 234 234 234 234 235 235 235 235
246 245 245 245 244 243 243 244 243 242 240 239 238 238 238 238 237 237 238 237 236 236 236 236 235 234 233 233 233 233 233 232 232 232 231 230 230 231 231 231 230 231 231 231 232 232 232 232 233 233 233 233 233 233 233 233 233 234 234 234 234 234 234 234 234 235 235 235 235 235 235 235 235 235
244 244 244 243 242 241 242 242 241 241 239 238 238 237 237 237 236 235 237 237 236 235 235 236 235 234 233 232 232 232 232 231 231 232 231 230 229 230 230 230 230 231 231 231 231 232 232 233 232 233 233 233 233 233 234 234 234 234 234 234 234 234 234 235 235 235 235 235 236 236 236 236 235 235
244 243 242 241 240 240 242 241 239 238 238 237 237 237 237 236 234 234 235 237 237 234 234 235 235 233 232 231 231 231 230 230 230 231 231 231 230 229 229 230 230 230 231 231 231 231 232 232 232 232 232 233 233 233 234 234 234 234 234 234 234 234 235 235 235 235 235 235 236 236 236 236 236 235
242 241 240 240 239 240 242 239 236 236 236 236 236 236 236 235 233 233 234 236 236 234 233 233 233 232 231 231 230 230 230 230 230 230 231 231 230 230 229 229 230 230 230 231 231 231 231 231 232 232 233 233 233 234 234 234 234 234 234 234 234 235 235 235 235 235 235 235 236 236 236 236 236 236
240 238 239 239 238 239 240 237 234 234 235 235 236 235 234 234 232 232 233 235 235 233 232 232 232 232 231 231 230 229 229 229 229 229 229 230 230 230 230 230 230 230 230 231 231 231 231 231 232 232 233 233 233 234 234 234 234 235 235 235 235 235 235 235 235 235 236 236 236 236 236 236 236 236
237 236 237 238 238 237 238 236 233 233 234 234 234 234 233 232 231 230 231 233 233 232 231 231 232 231 230 230 229 229 228 228 228 229 228 228 229 229 230 230 230 230 230 231 231 231 232 232 232 232 232 233 234 234 235 235 235 235 235 235 235 235 235 236 236 236 236 236 236 236 236 236 236 236
234 235 236 237 237 236 236 235 233 232 232 232 232 232 231 230 228 228 229 230 231 230 229 230 231 230 229 229 228 228 228 227 227 228 228 228 228 229 229 229 230 230 230 230 230 231 232 232 232 232 232 233 233 234 235 235 235 235 235 235 235 235 236 236 236 236 236 236 236 236 236 236 236 236
233 235 236 236 236 236 235 233 231 231 231 231 231 231 230 226 225 225 226 227 227 227 227 228 228 228 228 228 227 226 227 226 226 227 227 227 227 228 229 229 229 229 229 229 230 230 231 232 232 233 233 233 234 234 235 236 236 235 235 235 235 236 236 236 236 236 236 236 236 236 236 236 236 236
234 236 235 235 235 235 233 231 230 230 230 229 229 229 227 224 223 223 224 224 225 226 226 226 225 225 225 226 226 226 226 225 225 225 226 226 226 227 228 228 228 228 228 229 229 230 231 231 232 233 233 234 234 234 235 236 236 236 236 236 236 236 236 236 237 237 237 236 236 236 236 236 236 236
235 235 233 232 232 232 231 230 229 228 228 228 228 227 224 222 222 222 223 224 226 226 226 225 224 223 222 223 224 224 224 224 224 224 225 225 225 226 226 227 227 227 227 228 229 229 230 231 232 233 233 234 234 235 235 235 236 237 237 237 236 236 237 237 237 237 237 237 237 237 237 237 236 237
235 231 230 230 230 230 229 228 227 226 226 226 226 226 224 222 221 222 224 226 226 227 227 225 223 222 222 222 222 222 223 223 223 223 224 224 225 224 225 226 226 226 227 227 228 228 229 230 232 232 233 234 234 235 235 236 236 237 237 237 237 237 237 237 237 237 237 237 237 237 237 237 237 237
237 231 229 229 229 229 229 228 228 227 226 225 225 226 225 224 223 224 226 227 226 226 226 225 224 223 223 222 222 222 222 223 223 222 223 223 223 223 224 225 225 226 226 226 227 227 227 229 230 232 233 233 233 234 235 235 235 236 237 237 237 237 237 237 237 237 237 236 236 236 237 237 237 238
240 232 229 229 228 228 228 228 229 228 228 227 226 226 227 226 226 226 227 228 227 227 227 226 225 224 223 223 223 223 223 223 223 222 223 223 222 223 224 224 225 225 225 226 227 227 227 228 229 231 232 232 232 233 233 234 234 235 235 236 237 237 237 236 236 236 236 236 236 236 236 237 237 237
243 235 228 227 228 228 227 227 228 229 229 229 228 228 228 228 228 227 228 228 228 227 227 227 226 225 225 224 224 223 223 223 223 223 223 223 223 223 223 224 224 224 224 225 226 227 228 228 229 230 231 231 231 232 232 233 233 234 234 234 235 236 236 236 235 236 236 236 236 236 236 236 237 237
243 240 232 228 226 227 227 227 227 228 229 230 230 231 231 231 230 230 230 230 229 229 228 228 227 227 226 226 225 225 225 225 224 224 223 223 223 223 224 224 224 223 223 223 225 226 227 227 227 228 229 230 230 230 231 231 232 232 233 233 233 235 236 236 236 236 236 236 236 236 237 237 237 237
239 239 237 233 228 227 228 228 228 229 230 231 232 232 232 233 232 232 231 231 230 230 230 229 228 228 227 227 227 226 226 227 226 226 225 224 224 224 224 224 223 223 223 223 225 226 226 226 226 227 228 229 229 230 230 230 231 231 232 232 233 234 236 236 236 236 236 236 236 237 237 237 237 238
241 241 241 240 236 232 231 230 229 229 230 231 232 232 232 232 233 232 232 231 230 230 230 230 229 229 228 228 228 227 228 228 228 227 226 225 224 224 224 224 224 223 223 224 225 227 227 227 227 228 229 229 230 230 230 230 231 231 232 233 233 234 234 234 234 235 235 235 236 236 237 237 238 238
247 247 247 246 243 240 237 235 233 232 232 231 231 231 231 231 232 233 232 231 230 229 229 229 229 228 228 228 228 228 228 228 228 227 226 225 225 225 226 226 226 225 225 225 226 227 228 228 228 228 229 230 230 230 231 231 231 231 232 233 233 233 233 234 234 235 235 235 236 236 236 237 238 238
247 247 246 246 244 242 239 237 237 236 236 234 233 232 231 230 231 231 231 230 229 228 228 228 228 228 228 228 228 227 227 228 228 227 226 226 225 226 227 228 228 228 227 226 227 228 229 229 229 229 229 230 230 231 231 231 232 232 232 233 233 233 234 235 236 236 236 236 236 236 236 236 237 238
249 248 247 246 246 244 242 240 239 238 238 237 236 234 234 232 231 230 228 228 227 227 227 228 228 228 228 228 228 227 226 226 227 227 227 226 226 227 228 228 229 229 229 228 228 229 230 229 230 230 230 231 232 232 232 233 233 233 233 234 234 234 234 235 236 237 237 237 237 237 237 237 237 238
254 253 252 251 249 249 248 246 244 242 241 241 239 237 236 234 233 231 228 226 225 225 226 226 227 227 227 226 226 226 226 226 227 227 226 226 226 226 227 228 228 229 230 229 228 229 230 230 230 231 232 233 233 233 234 235 235 235 235 236 236 236 236 236 236 237 237 237 237 237 238 238 238 239
262 261 260 258 256 255 254 253 251 249 246 245 244 242 240 237 235 233 230 228 226 225 225 225 225 225 226 226 226 225 225 226 226 226 226 225 226 226 227 228 229 230 231 230 228 230 231 231 231 232 232 234 234 234 235 236 237 237 237 237 238 238 238 238 238 239 239 239 239 238 238 239 239 240
268 267 266 265 263 261 259 256 255 253 250 248 247 245 243 240 237 234 231 229 227 226 225 224 224 224 224 225 225 225 225 225 225 225 225 224 225 226 226 227 228 229 230 229 228 229 230 230 231 232 233 234 235 236 236 237 238 238 238 239 240 240 240 240 240 241 241 241 242 241 241 241 241 242
271 271 271 269 267 265 263 261 259 257 254 251 248 246 244 241 238 235 232 230 228 226 225 223 223 222 222 223 223 224 224 224 224 224 224 224 224 224 225 226 227 228 229 228 227 228 229 230 230 231 233 234 236 237 237 238 239 239 239 240 240 241 241 241 242 242 242 243 243 243 244 244 244 244
282 281 279 276 274 272 271 268 266 263 261 257 253 248 244 240 237 234 231 230 227 226 224 223 221 220 220 220 221 221 222 222 222 223 223 223 222 223 224 225 226 226 227 228 227 228 229 230 230 231 233 234 236 237 238 239 239 240 240 241 241 241 242 242 243 243 243 243 243 243 244 244 245 245
291 290 288 284 282 281 279 277 274 272 269 265 260 253 246 240 236 232 230 228 226 225 223 222 221 219 218 218 218 218 219 219 220 221 221 221 220 221 222 223 224 225 226 227 228 228 229 230 231 232 233 235 236 237 238 239 239 240 240 241 241 241 242 242 243 243 243 243 244 244 244 244 244 244
300 301 299 295 291 288 285 284 282 281 277 271 264 257 248 239 233 230 227 225 224 224 223 221 220 219 219 218 218 218 218 217 217 218 218 218 218 219 220 222 223 225 226 227 228 229 230 231 233 234 235 236 237 238 239 239 240 240 240 241 241 242 242 242 243 243 244 244 244 244 244 244 244 244
310 310 309 307 302 297 295 294 295 295 290 281 271 258 245 235 228 224 223 222 221 222 222 221 220 219 218 218 218 218 218 217 216 215 214 215 216 217 218 220 222 224 226 228 229 230 231 232 234 235 236 237 238 239 240 240 241 241 241 242 242 243 243 243 243 243 244 244 245 245 245 245 245 245
321 319 319 319 315 310 309 312 317 319 314 301 285 260 235 223 219 216 216 217 217 218 218 219 219 218 217 216 216 217 218 218 216 215 213 213 214 215 217 219 221 224 226 228 229 230 231 233 234 235 237 238 238 239 240 241 242 242 242 243 243 244 244 244 244 244 244 244 245 245 245 245 245 245
335 334 333 334 337 338 336 337 343 347 346 338 319 261 215 207 207 207 209 211 212 213 214 216 217 217 216 215 216 217 218 217 216 215 216 215 215 215 217 220 222 223 225 227 229 230 232 233 235 236 238 239 239 240 240 241 242 243 243 243 243 244 244 245 245 245 245 245 245 246 246 246 246 246
348 349 353 360 7 6 3 3 6 9 16 28 42 78 159 185 195 199 202 204 205 206 208 211 213 214 215 215 216 217 217 216 216 216 217 217 216 216 219 222 224 225 226 228 230 231 233 235 236 238 239 240 241 241 241 242 243 243 243 243 243 244 244 245 245 246 245 245 246 246 247 247 247 247
6 11 16 20 22 22 21 22 21 26 38 50 60 77 107 142 167 181 189 194 196 198 201 205 208 210 211 213 216 217 217 217 217 217 219 220 220 220 222 225 227 229 230 232 233 234 236 237 238 239 240 241 242 243 243 243 244 244 244 244 245 245 245 245 246 246 246 247 247 247 248 248 248 248
26 30 32 35 35 34 34 33 33 40 53 61 68 81 96 109 124 141 156 168 177 184 191 198 202 205 207 210 214 216 217 218 218 219 220 222 223 224 226 228 231 233 235 236 237 238 239 240 240 241 242 243 244 245 245 245 245 245 245 246 246 246 246 247 247 247 247 248 248 248 249 249 249 249
36 36 38 42 42 42 43 44 48 56 65 71 78 87 96 102 109 118 128 138 151 163 173 182 188 194 199 204 208 212 214 215 216 218 220 222 224 226 229 231 233 235 237 239 241 241 242 243 243 244 246 247 248 248 248 247 247 247 248 248 248 248 248 249 249 249 249 249 249 250 250 250 251 250
35 36 41 45 47 50 53 55 61 69 76 81 85 91 97 102 107 114 121 128 136 146 155 163 169 176 183 190 195 200 203 207 210 212 215 218 221 224 227 229 231 233 235 238 240 241 241 242 243 245 247 248 249 250 250 250 250 250 250 250 251 251 250 251 251 251 251 251 251 252 252 252 252 252
31 33 38 44 50 57 64 69 73 77 82 88 91 93 97 103 109 115 122 129 135 142 149 155 161 168 175 180 185 190 194 198 202 205 209 213 217 220 224 227 229 232 235 237 240 241 242 243 244 245 247 248 249 251 252 252 252 252 251 252 252 252 252 252 252 252 252 253 253 253 253 253 253 254
28 29 33 40 49 59 69 78 80 81 84 88 90 92 96 101 106 111 116 123 131 138 145 152 160 166 173 178 183 188 192 197 202 206 211 216 221 225 229 232 235 237 239 241 244 245 246 247 247 248 249 251 252 254 254 254 255 255 253 252 253 253 253 253 253 254 254 254 254 254 254 254 255 255
21 24 28 36 47 57 68 78 83 86 88 90 90 92 96 100 104 108 113 118 125 133 142 152 161 169 176 182 188 193 198 203 209 214 219 223 228 232 236 238 240 242 244 246 248 249 251 252 253 254 254 255 256 257 258 258 258 258 257 255 255 255 255 255 255 255 255 255 255 255 255 255 256 256
13 17 23 30 40 50 61 72 82 89 95 98 98 98 101 105 108 114 120 126 132 138 146 157 168 177 186 194 199 205 210 215 220 225 228 231 235 238 240 242 245 247 249 251 252 254 255 256 256 257 258 259 259 260 260 260 260 260 260 259 258 257 257 257 257 257 257 256 256 256 256 256 256 256
1 5 12 22 31 39 50 65 77 86 95 104 107 108 112 115 118 124 135 146 157 165 172 183 192 199 206 212 216 220 224 228 232 235 237 240 243 244 245 247 249 250 252 254 256 257 258 258 258 258 259 259 260 260 261 262 262 262 261 261 260 259 259 259 258 258 258 257 256 256 256 257 257 257
348 348 351 2 24 39 41 50 66 72 79 90 98 102 115 127 139 159 173 187 198 205 212 218 222 224 227 228 230 233 235 236 239 241 243 245 247 249 249 251 252 254 255 257 259 259 260 260 260 260 261 261 262 262 263 264 264 263 263 263 262 262 261 261 260 259 259 258 257 257 257 256 257 257
345 342 338 333 318 346 3 352 343 20 54 66 54 52 69 97 154 201 222 234 237 237 238 239 240 241 242 241 240 241 242 243 244 245 246 248 251 252 254 254 256 257 258 260 262 262 263 264 264 264 265 265 265 265 266 266 266 266 266 265 264 264 263 262 261 260 260 259 258 258 257 257 257 258
348 346 341 330 297 271 277 285 281 274 270 280 311 333 342 330 300 274 264 264 263 260 257 253 251 250 250 249 250 250 249 249 249 250 252 254 256 258 259 259 259 261 262 263 265 266 267 268 268 268 269 269 270 270 270 270 269 269 269 268 267 266 265 264 263 262 261 261 260 259 258 258 258 258